PRMRC SNCT-SNPA

Flight info

Callsign PRMRC
Flight time 0h 52m
Altitude 8500
Route DCT
Aircraft BE58/L-SDGR/SB1

Departure

Time 2026-05-03 21:56
Airport Ubaporanga Airport (SNCT)

Arrival

Time 2026-05-03 22:49
Airport Pará de Minas Airport (SNPA)
Time Latitude Longitude Altitude Speed Heading
2026-05-03 21:51 -19.72820 -42.11275 2012 ft 0 kts 264°
2026-05-03 21:53 -19.72807 -42.11292 2011 ft 8 kts 342°
2026-05-03 21:54 -19.72750 -42.11261 2008 ft 9 kts 78°
2026-05-03 21:54 -19.72747 -42.11233 2009 ft 0 kts 83°
2026-05-03 21:55 -19.72745 -42.11212 2010 ft 10 kts 89°
2026-05-03 21:55 -19.72824 -42.11177 2010 ft 16 kts 173°
2026-05-03 21:55 -19.72954 -42.11159 2010 ft 20 kts 173°
2026-05-03 21:55 -19.73007 -42.11161 2011 ft 6 kts 356°
2026-05-03 21:56 -19.72760 -42.11187 2008 ft 78 kts 352°
2026-05-03 21:56 -19.72037 -42.11283 2215 ft 114 kts 355°
2026-05-03 21:56 -19.71244 -42.11368 2741 ft 117 kts 358°
2026-05-03 21:56 -19.70465 -42.11670 3212 ft 124 kts 321°
2026-05-03 21:57 -19.70010 -42.12476 3635 ft 135 kts 283°
2026-05-03 21:57 -19.69935 -42.13498 3891 ft 144 kts 270°
2026-05-03 21:57 -19.69922 -42.14564 4207 ft 148 kts 270°
2026-05-03 21:57 -19.69899 -42.15675 4418 ft 155 kts 270°
2026-05-03 21:58 -19.69928 -42.16854 4600 ft 164 kts 266°
2026-05-03 21:58 -19.70001 -42.18081 4783 ft 170 kts 266°
2026-05-03 21:58 -19.70084 -42.19351 4957 ft 174 kts 265°
2026-05-03 21:58 -19.70168 -42.20641 5129 ft 176 kts 265°
2026-05-03 21:59 -19.70252 -42.21920 5295 ft 177 kts 265°
2026-05-03 21:59 -19.70338 -42.23230 5461 ft 179 kts 266°
2026-05-03 21:59 -19.70424 -42.24556 5635 ft 181 kts 266°
2026-05-03 21:59 -19.70518 -42.25893 5813 ft 183 kts 264°
2026-05-03 22:00 -19.70670 -42.27229 5980 ft 183 kts 261°
2026-05-03 22:00 -19.70871 -42.28570 6152 ft 183 kts 261°
2026-05-03 22:00 -19.71071 -42.29903 6324 ft 183 kts 261°
2026-05-03 22:00 -19.71273 -42.31238 6453 ft 184 kts 261°
2026-05-03 22:01 -19.71479 -42.32601 6483 ft 191 kts 261°
2026-05-03 22:01 -19.71690 -42.34015 6481 ft 196 kts 261°
2026-05-03 22:01 -19.71906 -42.35460 6484 ft 200 kts 261°
2026-05-03 22:01 -19.72124 -42.36925 6481 ft 201 kts 261°
2026-05-03 22:02 -19.72345 -42.38395 6485 ft 202 kts 261°
2026-05-03 22:02 -19.72565 -42.39870 6490 ft 203 kts 261°
2026-05-03 22:02 -19.72784 -42.41356 6487 ft 203 kts 261°
2026-05-03 22:02 -19.73003 -42.42835 6484 ft 204 kts 261°
2026-05-03 22:03 -19.73220 -42.44300 6482 ft 204 kts 261°
2026-05-03 22:03 -19.73447 -42.45805 6483 ft 204 kts 261°
2026-05-03 22:03 -19.73671 -42.47293 6482 ft 205 kts 261°
2026-05-03 22:03 -19.73894 -42.48769 6485 ft 205 kts 261°
2026-05-03 22:04 -19.74121 -42.50280 6508 ft 203 kts 261°
2026-05-03 22:04 -19.74335 -42.51722 6563 ft 200 kts 261°
2026-05-03 22:04 -19.74552 -42.53189 6560 ft 201 kts 261°
2026-05-03 22:04 -19.74770 -42.54663 6560 ft 203 kts 261°
2026-05-03 22:05 -19.74995 -42.56144 6566 ft 203 kts 261°
2026-05-03 22:05 -19.75220 -42.57629 6570 ft 204 kts 261°
2026-05-03 22:05 -19.75445 -42.59119 6565 ft 204 kts 261°
2026-05-03 22:05 -19.75666 -42.60602 6576 ft 203 kts 261°
2026-05-03 22:06 -19.75886 -42.62087 6572 ft 203 kts 261°
2026-05-03 22:06 -19.76103 -42.63563 6578 ft 202 kts 261°
2026-05-03 22:06 -19.76318 -42.65041 6580 ft 204 kts 261°
2026-05-03 22:06 -19.76541 -42.66529 6582 ft 204 kts 261°
2026-05-03 22:07 -19.76764 -42.68023 6585 ft 205 kts 261°
2026-05-03 22:07 -19.76984 -42.69524 6587 ft 206 kts 261°
2026-05-03 22:07 -19.77204 -42.71025 6594 ft 205 kts 261°
2026-05-03 22:07 -19.77421 -42.72527 6598 ft 206 kts 261°
2026-05-03 22:08 -19.77645 -42.74028 6597 ft 206 kts 261°
2026-05-03 22:08 -19.77868 -42.75532 6598 ft 206 kts 261°
2026-05-03 22:08 -19.78090 -42.77039 6600 ft 207 kts 261°
2026-05-03 22:08 -19.78309 -42.78541 6598 ft 205 kts 261°
2026-05-03 22:09 -19.78525 -42.80035 6600 ft 204 kts 261°
2026-05-03 22:09 -19.78738 -42.81522 6603 ft 203 kts 261°
2026-05-03 22:09 -19.78948 -42.83001 6607 ft 203 kts 261°
2026-05-03 22:10 -19.79377 -42.85973 6604 ft 204 kts 261°
2026-05-03 22:10 -19.79589 -42.87449 6602 ft 205 kts 261°
2026-05-03 22:10 -19.79805 -42.88950 6604 ft 205 kts 261°
2026-05-03 22:10 -19.80020 -42.90439 6609 ft 203 kts 261°
2026-05-03 22:11 -19.80232 -42.91924 6612 ft 204 kts 261°
2026-05-03 22:11 -19.80442 -42.93410 6606 ft 204 kts 261°
2026-05-03 22:11 -19.80652 -42.94908 6610 ft 205 kts 261°
2026-05-03 22:11 -19.80859 -42.96408 6612 ft 206 kts 261°
2026-05-03 22:12 -19.80995 -42.97402 6613 ft 205 kts 261°
2026-05-03 22:12 -19.81201 -42.98906 6617 ft 206 kts 261°
2026-05-03 22:12 -19.81404 -43.00416 6610 ft 207 kts 261°
2026-05-03 22:12 -19.81607 -43.01927 6613 ft 206 kts 261°
2026-05-03 22:13 -19.81817 -43.03432 6620 ft 206 kts 261°
2026-05-03 22:13 -19.82023 -43.04934 6618 ft 205 kts 261°
2026-05-03 22:13 -19.82227 -43.06431 6612 ft 205 kts 261°
2026-05-03 22:13 -19.82430 -43.07934 6617 ft 206 kts 261°
2026-05-03 22:14 -19.82640 -43.09438 6620 ft 207 kts 261°
2026-05-03 22:14 -19.82850 -43.10955 6626 ft 208 kts 261°
2026-05-03 22:14 -19.83064 -43.12474 6627 ft 208 kts 260°
2026-05-03 22:14 -19.83278 -43.13998 6625 ft 210 kts 261°
2026-05-03 22:15 -19.83490 -43.15533 6628 ft 209 kts 261°
2026-05-03 22:15 -19.83715 -43.17064 6631 ft 210 kts 255°
2026-05-03 22:15 -19.84195 -43.18528 6634 ft 209 kts 245°
2026-05-03 22:15 -19.84789 -43.19930 6638 ft 209 kts 243°
2026-05-03 22:16 -19.85397 -43.21311 6636 ft 210 kts 243°
2026-05-03 22:16 -19.86013 -43.22716 6636 ft 209 kts 243°
2026-05-03 22:16 -19.86635 -43.24110 6639 ft 209 kts 243°
2026-05-03 22:16 -19.87259 -43.25513 6632 ft 210 kts 243°
2026-05-03 22:17 -19.87874 -43.26905 6637 ft 208 kts 243°
2026-05-03 22:17 -19.88490 -43.28298 6634 ft 206 kts 243°
2026-05-03 22:17 -19.89096 -43.29672 6637 ft 205 kts 243°
2026-05-03 22:17 -19.89699 -43.31048 6629 ft 204 kts 243°
2026-05-03 22:18 -19.90298 -43.32411 6636 ft 203 kts 243°
2026-05-03 22:18 -19.90904 -43.33779 6639 ft 206 kts 243°
2026-05-03 22:18 -19.91516 -43.35159 6634 ft 207 kts 243°
2026-05-03 22:18 -19.92131 -43.36540 6637 ft 206 kts 243°
2026-05-03 22:19 -19.92738 -43.37921 6638 ft 207 kts 243°
2026-05-03 22:19 -19.93356 -43.39314 6639 ft 209 kts 243°
2026-05-03 22:19 -19.93979 -43.40707 6642 ft 209 kts 243°
2026-05-03 22:19 -19.94631 -43.42062 6641 ft 208 kts 236°
2026-05-03 22:20 -19.95459 -43.43324 6639 ft 208 kts 231°
2026-05-03 22:20 -19.96335 -43.44544 6646 ft 208 kts 230°
2026-05-03 22:20 -19.97224 -43.45782 6646 ft 207 kts 230°
2026-05-03 22:20 -19.98081 -43.46981 6640 ft 206 kts 230°
2026-05-03 22:21 -19.98946 -43.48189 6642 ft 205 kts 230°
2026-05-03 22:21 -19.99810 -43.49392 6646 ft 204 kts 230°
2026-05-03 22:21 -20.00673 -43.50592 6641 ft 204 kts 230°
2026-05-03 22:21 -20.01523 -43.51781 6640 ft 201 kts 230°
2026-05-03 22:22 -20.02368 -43.52963 6633 ft 200 kts 230°
2026-05-03 22:22 -20.03212 -43.54134 6633 ft 199 kts 230°
2026-05-03 22:22 -20.04051 -43.55295 6639 ft 198 kts 230°
2026-05-03 22:22 -20.04885 -43.56451 6638 ft 196 kts 230°
2026-05-03 22:23 -20.05719 -43.57603 6642 ft 196 kts 230°
2026-05-03 22:23 -20.06551 -43.58757 6647 ft 197 kts 230°
2026-05-03 22:23 -20.07390 -43.59919 6648 ft 199 kts 230°
2026-05-03 22:23 -20.08238 -43.61083 6644 ft 199 kts 230°
2026-05-03 22:24 -20.09077 -43.62238 6647 ft 200 kts 230°
2026-05-03 22:24 -20.09949 -43.63386 6651 ft 199 kts 228°
2026-05-03 22:24 -20.10832 -43.64525 6652 ft 200 kts 228°
2026-05-03 22:24 -20.11711 -43.65650 6646 ft 197 kts 228°
2026-05-03 22:25 -20.12595 -43.66770 6650 ft 197 kts 228°
2026-05-03 22:25 -20.13479 -43.67890 6651 ft 198 kts 228°
2026-05-03 22:25 -20.14362 -43.69015 6650 ft 198 kts 228°
2026-05-03 22:25 -20.15246 -43.70143 6650 ft 198 kts 228°
2026-05-03 22:26 -20.16123 -43.71264 6653 ft 197 kts 228°
2026-05-03 22:26 -20.17000 -43.72387 6654 ft 197 kts 228°
2026-05-03 22:26 -20.17878 -43.73504 6652 ft 197 kts 228°
2026-05-03 22:26 -20.18757 -43.74622 6651 ft 197 kts 228°
2026-05-03 22:27 -20.19634 -43.75743 6649 ft 197 kts 228°
2026-05-03 22:27 -20.20506 -43.76859 6654 ft 196 kts 228°
2026-05-03 22:27 -20.21374 -43.77972 6654 ft 194 kts 228°
2026-05-03 22:27 -20.22230 -43.79084 6651 ft 194 kts 231°
2026-05-03 22:28 -20.22846 -43.80351 6655 ft 197 kts 246°
2026-05-03 22:28 -20.23316 -43.81724 6655 ft 198 kts 248°
2026-05-03 22:28 -20.23785 -43.83098 6655 ft 198 kts 248°
2026-05-03 22:28 -20.24254 -43.84473 6653 ft 197 kts 248°
2026-05-03 22:29 -20.24721 -43.85849 6657 ft 197 kts 248°
2026-05-03 22:29 -20.25187 -43.87225 6655 ft 197 kts 248°
2026-05-03 22:29 -20.25647 -43.88589 6653 ft 195 kts 248°
2026-05-03 22:29 -20.26110 -43.89952 6654 ft 196 kts 248°
2026-05-03 22:30 -20.26572 -43.91318 6652 ft 196 kts 248°
2026-05-03 22:30 -20.27032 -43.92689 6655 ft 196 kts 248°
2026-05-03 22:30 -20.27492 -43.94061 6655 ft 197 kts 248°
2026-05-03 22:30 -20.27952 -43.95433 6653 ft 196 kts 248°
2026-05-03 22:31 -20.28410 -43.96803 6658 ft 197 kts 248°
2026-05-03 22:31 -20.28867 -43.98158 6656 ft 197 kts 248°
2026-05-03 22:31 -20.29330 -43.99528 6654 ft 197 kts 248°
2026-05-03 22:31 -20.29795 -44.00904 6649 ft 196 kts 248°
2026-05-03 22:32 -20.30257 -44.02272 6648 ft 196 kts 248°
2026-05-03 22:32 -20.30716 -44.03635 6652 ft 196 kts 248°
2026-05-03 22:32 -20.31172 -44.05001 6650 ft 196 kts 250°
2026-05-03 22:32 -20.31182 -44.06443 6643 ft 201 kts 286°
2026-05-03 22:33 -20.30579 -44.07792 6615 ft 204 kts 297°
2026-05-03 22:33 -20.29885 -44.09128 6527 ft 208 kts 297°
2026-05-03 22:33 -20.29188 -44.10487 6432 ft 210 kts 297°
2026-05-03 22:33 -20.28487 -44.11853 6335 ft 211 kts 297°
2026-05-03 22:34 -20.27778 -44.13233 6238 ft 213 kts 297°
2026-05-03 22:34 -20.27065 -44.14614 6176 ft 212 kts 297°
2026-05-03 22:34 -20.26362 -44.15967 6100 ft 211 kts 297°
2026-05-03 22:34 -20.25645 -44.17342 6032 ft 213 kts 297°
2026-05-03 22:35 -20.24927 -44.18715 6004 ft 210 kts 297°
2026-05-03 22:35 -20.24223 -44.20069 6001 ft 208 kts 297°
2026-05-03 22:35 -20.23522 -44.21413 5998 ft 207 kts 297°
2026-05-03 22:35 -20.22827 -44.22749 5996 ft 206 kts 297°
2026-05-03 22:36 -20.22132 -44.24079 5993 ft 205 kts 297°
2026-05-03 22:36 -20.21441 -44.25395 5986 ft 203 kts 297°
2026-05-03 22:36 -20.20755 -44.26701 5981 ft 201 kts 297°
2026-05-03 22:36 -20.19902 -44.27873 5976 ft 203 kts 324°
2026-05-03 22:37 -20.18591 -44.28414 5972 ft 203 kts 347°
2026-05-03 22:37 -20.17207 -44.28669 5984 ft 201 kts 352°
2026-05-03 22:37 -20.15812 -44.28862 5982 ft 203 kts 353°
2026-05-03 22:37 -20.14402 -44.29030 5986 ft 205 kts 355°
2026-05-03 22:38 -20.12972 -44.29139 5988 ft 206 kts 356°
2026-05-03 22:38 -20.11547 -44.29245 5987 ft 206 kts 356°
2026-05-03 22:38 -20.10114 -44.29351 5987 ft 206 kts 356°
2026-05-03 22:38 -20.08693 -44.29457 5992 ft 208 kts 354°
2026-05-03 22:39 -20.07263 -44.29719 5986 ft 208 kts 347°
2026-05-03 22:39 -20.05857 -44.30076 5982 ft 207 kts 346°
2026-05-03 22:39 -20.04454 -44.30431 5983 ft 208 kts 346°
2026-05-03 22:39 -20.03047 -44.30785 5980 ft 208 kts 346°
2026-05-03 22:40 -20.01639 -44.31137 5979 ft 208 kts 346°
2026-05-03 22:40 -20.00228 -44.31498 5980 ft 209 kts 346°
2026-05-03 22:40 -19.98812 -44.31857 5976 ft 209 kts 346°
2026-05-03 22:40 -19.97400 -44.32211 5977 ft 205 kts 346°
2026-05-03 22:41 -19.96131 -44.32818 5956 ft 199 kts 317°
2026-05-03 22:41 -19.95290 -44.33948 5954 ft 193 kts 302°
2026-05-03 22:41 -19.94545 -44.35126 5953 ft 190 kts 302°
2026-05-03 22:41 -19.93807 -44.36281 5944 ft 188 kts 302°
2026-05-03 22:42 -19.93073 -44.37422 5945 ft 187 kts 302°
2026-05-03 22:42 -19.92441 -44.38626 5941 ft 186 kts 294°
2026-05-03 22:42 -19.91884 -44.39866 5939 ft 186 kts 294°
2026-05-03 22:42 -19.91315 -44.41101 5936 ft 187 kts 294°
2026-05-03 22:43 -19.90740 -44.42340 5933 ft 187 kts 294°
2026-05-03 22:43 -19.90168 -44.43576 5898 ft 189 kts 294°
2026-05-03 22:43 -19.89583 -44.44836 5754 ft 191 kts 294°
2026-05-03 22:43 -19.88987 -44.46101 5619 ft 191 kts 295°
2026-05-03 22:44 -19.88378 -44.47354 5429 ft 192 kts 296°
2026-05-03 22:44 -19.87754 -44.48610 5236 ft 193 kts 296°
2026-05-03 22:44 -19.87122 -44.49868 5081 ft 193 kts 296°
2026-05-03 22:44 -19.86511 -44.51133 4936 ft 191 kts 295°
2026-05-03 22:45 -19.85908 -44.52390 4773 ft 190 kts 295°
2026-05-03 22:45 -19.85315 -44.53633 4591 ft 189 kts 294°
2026-05-03 22:45 -19.84749 -44.54903 4470 ft 188 kts 293°
2026-05-03 22:45 -19.84209 -44.56150 4339 ft 185 kts 292°
2026-05-03 22:46 -19.83695 -44.57413 4186 ft 187 kts 291°
2026-05-03 22:46 -19.83221 -44.58689 4044 ft 185 kts 288°
2026-05-03 22:46 -19.82807 -44.59984 3949 ft 182 kts 285°
2026-05-03 22:46 -19.82518 -44.61225 3891 ft 167 kts 280°
2026-05-03 22:47 -19.82284 -44.62374 3830 ft 152 kts 279°
2026-05-03 22:47 -19.82339 -44.63395 3628 ft 132 kts 230°
2026-05-03 22:47 -19.83108 -44.63710 3428 ft 116 kts 168°
2026-05-03 22:47 -19.83621 -44.63198 3234 ft 103 kts 110°
2026-05-03 22:48 -19.83841 -44.62490 3001 ft 101 kts 109°
2026-05-03 22:48 -19.83987 -44.61744 2883 ft 104 kts 101°
2026-05-03 22:48 -19.84099 -44.61000 2765 ft 101 kts 102°
2026-05-03 22:48 -19.84202 -44.60329 2729 ft 74 kts 100°
2026-05-03 22:49 -19.84244 -44.60035 2758 ft 12 kts 82°
2026-05-03 22:49 -19.84253 -44.60026 2760 ft 12 kts 274°
2026-05-03 22:49 -19.84228 -44.60172 2744 ft 25 kts 279°
2026-05-03 22:49 -19.84199 -44.60359 2732 ft 24 kts 279°
2026-05-03 22:50 -19.84196 -44.60491 2716 ft 12 kts 227°
2026-05-03 22:50 -19.84249 -44.60546 2709 ft 9 kts 194°
2026-05-03 22:50 -19.84289 -44.60514 2710 ft 7 kts 98°
2026-05-03 22:50 -19.84296 -44.60470 2713 ft 6 kts 100°
2026-05-03 22:51 -19.84303 -44.60427 2716 ft 4 kts 99°
2026-05-03 22:51 -19.84308 -44.60397 2718 ft 6 kts 101°
2026-05-03 22:51 -19.84310 -44.60361 2728 ft 0 kts 358°
2026-05-03 22:51 -19.84309 -44.60364 2726 ft 0 kts 277°